sat.trackr.live / text

‹ back to catalog

KUIPER-00503

NORAD 68884 · 2026-095W

PAYLOAD ACTIVE UNKNOWN

§ Identity

Operator
Country
US
Launch date
2026-04-28
Launch site
AFETR
Launch vehicle
Mass (kg)
RCS (m²)

External: N2YO · Heavens-Above · Gunter

§ Orbital elements

Epoch: 2026-05-25T04:00:03.998880Z

Period
94.22 min
Inclination
51.8822°
Eccentricity
0.0006801
Mean motion
15.28260469 rev/d
Perigee alt
476.3 km
Apogee alt
485.7 km
Semi-major
6,859.1 km
B*
-4.1468e-2
RAAN
354.0524°
Arg perigee
217.7457°
Mean anomaly
122.4533°
Rev number
476

§ Raw data

KUIPER-005031 68884U 26095W   26145.16671295 -.01063485  00000+0 -41468-1 0  99932 68884  51.8822 354.0524 0006801 217.7457 122.4533 15.28260469  4763

JSON: /api/v1/satellites/68884 · /tle

For live sub-satellite position, see the globe view (requires WebGL).

§ Visibility from observer

Set your observer location to see the next 7 days of passes ≥ 10°. The values pass through the URL so the page stays shareable.

No JS? Fill the form by hand. The geolocation button needs JavaScript.